SPACEBEE-81 (47709 NORAD) Tracking and Keplerian Element Data

This shows tracking and keplerian element data for the satellite.

Feedback or suggestion? Click here.




ElementValue
Catalog47709
NameSPACEBEE-81
Epoch Orbit607
Epoch Day99.76508828
Epoch Year2021
RAAN174.7069
Inclination97.4562
Eccentricity0.0011868
Argument of Perigee148.071
Mean Anonmoly212.1247
Mean Motion15.21483581
Decay Rate4.33E-05
L11 47709U 21015L 21099.76508828 .00004330 00000-0 19531-3 0 9993
L22 47709 97.4562 174.7069 0011868 148.0710 212.1247 15.21483581 6071

Live tracking and technical data element details for SPACEBEE-81 (NORAD 47709). SPACEBEE-81 can be tracked NOW for your location showing map with azimuth and elevation plus other details from your city location.

Track the satellite on the map from your city or location and see movement details for azimuth, elevation, latitude, longitude, range, height, and movement on the map or in text.







IsCatalogInMostPopularTable: catalog: 47709, numindb: 26
Update: records affected: 1



GetName: 47709 SPACEBEE-81

Hit Count: updated at: Sat, 10 Apr 2021 18:18:26 GMT